Hourly Weather Holomki

Today, 12 April, Monday

Time Temperature Precipitation Wind Pressure Humidity
00:00 +7°C° 0 mm 2 mps 764 mmHg 93%
01:00 +7°C° 0 mm 2 mps 764 mmHg 92%
02:00 +6°C° 0 mm 2 mps 763 mmHg 91%
03:00 +7°C° 0 mm 2 mps 763 mmHg 88%
04:00 +7°C° 0 mm 3 mps 763 mmHg 85%
05:00 +7°C° 0 mm 3 mps 763 mmHg 82%
06:00 +8°C° 0 mm 3 mps 763 mmHg 78%
07:00 +8°C° 0 mm 4 mps 763 mmHg 74%
08:00 +10°C° 0 mm 4 mps 763 mmHg 69%
09:00 +12°C° 0 mm 4 mps 763 mmHg 63%
10:00 +13°C° 0 mm 5 mps 763 mmHg 57%
11:00 +15°C° 0 mm 5 mps 763 mmHg 51%
12:00 +15°C° 0 mm 5 mps 763 mmHg 48%
13:00 +16°C° 0 mm 5 mps 762 mmHg 45%
14:00 +17°C° 0 mm 5 mps 762 mmHg 42%
15:00 +16°C° 0 mm 5 mps 761 mmHg 44%
16:00 +17°C° 0 mm 4 mps 761 mmHg 45%
17:00 +17°C° 0 mm 4 mps 760 mmHg 47%
18:00 +14°C° 0 mm 3 mps 760 mmHg 53%
19:00 +12°C° 0 mm 3 mps 760 mmHg 60%
20:00 +10°C° 0 mm 3 mps 760 mmHg 67%
21:00 +10°C° 0 mm 3 mps 760 mmHg 68%
22:00 +9°C° 0 mm 3 mps 760 mmHg 68%
23:00 +9°C° 0 mm 3 mps 760 mmHg 69%

Tomorrow, 13 April, Tuesday

Time Temperature Precipitation Wind Pressure Humidity
00:00 +8°C° 0 mm 3 mps 759 mmHg 73%
01:00 +8°C° 0 mm 3 mps 759 mmHg 78%
02:00 +7°C° 0 mm 3 mps 759 mmHg 82%
03:00 +7°C° 0 mm 2 mps 759 mmHg 86%
04:00 +6°C° 0 mm 2 mps 759 mmHg 90%
05:00 +6°C° 0 mm 2 mps 759 mmHg 94%
06:00 +7°C° 0 mm 2 mps 759 mmHg 88%
07:00 +9°C° 0 mm 2 mps 759 mmHg 82%
08:00 +10°C° 0 mm 2 mps 759 mmHg 76%
09:00 +13°C° 0 mm 2 mps 759 mmHg 68%
10:00 +14°C° 0 mm 2 mps 759 mmHg 61%
11:00 +15°C° 0 mm 2 mps 759 mmHg 54%
12:00 +16°C° 0 mm 2 mps 759 mmHg 51%
13:00 +17°C° 0 mm 2 mps 758 mmHg 49%
14:00 +17°C° 0 mm 2 mps 758 mmHg 47%
15:00 +17°C° 0 mm 2 mps 758 mmHg 52%
16:00 +16°C° 0 mm 2 mps 758 mmHg 58%
17:00 +15°C° 0 mm 2 mps 758 mmHg 64%
18:00 +13°C° 0 mm 2 mps 758 mmHg 71%
19:00 +10°C° 0 mm 3 mps 758 mmHg 78%
20:00 +8°C° 0 mm 3 mps 759 mmHg 85%
21:00 +8°C° 0.1 mm 3 mps 758 mmHg 87%
22:00 +7°C° 0.1 mm 3 mps 758 mmHg 88%
23:00 +5°C° 0.1 mm 3 mps 758 mmHg 89%

Day after tomorrow, 14 April, Wednesday

Time Temperature Precipitation Wind Pressure Humidity
00:00 +5°C° 0.8 mm 3 mps 758 mmHg 90%
01:00 +5°C° 0.8 mm 3 mps 757 mmHg 91%
02:00 +4°C° 0.8 mm 3 mps 757 mmHg 92%
03:00 +4°C° 1.7 mm 3 mps 757 mmHg 93%
04:00 +3°C° 1.7 mm 3 mps 757 mmHg 93%
05:00 +3°C° 1.7 mm 3 mps 757 mmHg 94%
06:00 +2°C° 0.9 mm 3 mps 757 mmHg 94%
07:00 +2°C° 0.9 mm 3 mps 757 mmHg 95%
08:00 +2°C° 0.9 mm 3 mps 757 mmHg 95%
09:00 +2°C° 0.5 mm 3 mps 757 mmHg 96%
10:00 +2°C° 0.5 mm 3 mps 758 mmHg 96%
11:00 +1°C° 0.5 mm 3 mps 758 mmHg 96%
12:00 +1°C° 0.3 mm 3 mps 758 mmHg 97%
13:00 +2°C° 0.3 mm 3 mps 758 mmHg 97%
14:00 +2°C° 0.3 mm 3 mps 758 mmHg 97%
15:00 +3°C° 0.2 mm 2 mps 759 mmHg 97%
16:00 +3°C° 0.2 mm 2 mps 759 mmHg 97%
17:00 +3°C° 0.2 mm 2 mps 759 mmHg 96%
18:00 +3°C° 0.2 mm 2 mps 759 mmHg 96%
19:00 +3°C° 0.2 mm 2 mps 759 mmHg 96%
20:00 +3°C° 0.2 mm 2 mps 760 mmHg 96%
21:00 +3°C° 0 mm 2 mps 760 mmHg 95%
22:00 +3°C° 0 mm 2 mps 760 mmHg 94%
23:00 +3°C° 0 mm 2 mps 760 mmHg 93%

15 April, Thursday

Time Temperature Precipitation Wind Pressure Humidity
00:00 +3°C° 0 mm 2 mps 760 mmHg 92%
01:00 +3°C° 0 mm 2 mps 760 mmHg 92%
02:00 +2°C° 0 mm 3 mps 760 mmHg 91%
03:00 +2°C° 0 mm 3 mps 760 mmHg 90%
04:00 +2°C° 0 mm 3 mps 760 mmHg 88%
05:00 +2°C° 0 mm 3 mps 760 mmHg 87%
06:00 +2°C° 0 mm 3 mps 760 mmHg 85%
07:00 +1°C° 0 mm 4 mps 760 mmHg 83%
08:00 +3°C° 0 mm 4 mps 760 mmHg 80%
09:00 +3°C° 0 mm 4 mps 761 mmHg 79%
10:00 +4°C° 0 mm 4 mps 761 mmHg 78%
11:00 +4°C° 0 mm 4 mps 761 mmHg 77%
12:00 +5°C° 0 mm 4 mps 761 mmHg 74%
13:00 +6°C° 0 mm 4 mps 760 mmHg 72%
14:00 +6°C° 0 mm 5 mps 760 mmHg 69%
15:00 +6°C° 0 mm 4 mps 760 mmHg 71%
16:00 +6°C° 0 mm 4 mps 760 mmHg 73%
17:00 +6°C° 0 mm 4 mps 760 mmHg 74%
18:00 +5°C° 0 mm 4 mps 761 mmHg 76%
19:00 +5°C° 0 mm 4 mps 761 mmHg 78%
20:00 +5°C° 0 mm 4 mps 761 mmHg 80%
21:00 +4°C° 0 mm 4 mps 761 mmHg 80%
22:00 +4°C° 0 mm 4 mps 761 mmHg 80%
23:00 +3°C° 0 mm 5 mps 761 mmHg 81%

16 April, Friday

Time Temperature Precipitation Wind Pressure Humidity
00:00 +3°C° 0.1 mm 5 mps 761 mmHg 82%
01:00 +2°C° 0.1 mm 5 mps 761 mmHg 84%
02:00 +2°C° 0.1 mm 5 mps 761 mmHg 85%
03:00 +2°C° 0 mm 5 mps 761 mmHg 85%
04:00 +2°C° 0 mm 5 mps 761 mmHg 86%
05:00 +2°C° 0 mm 5 mps 762 mmHg 86%
06:00 +3°C° 0 mm 5 mps 762 mmHg 84%
07:00 +3°C° 0 mm 5 mps 762 mmHg 81%
08:00 +3°C° 0 mm 5 mps 762 mmHg 79%
09:00 +6°C° 0 mm 5 mps 763 mmHg 74%
10:00 +7°C° 0 mm 5 mps 763 mmHg 70%
11:00 +8°C° 0 mm 5 mps 763 mmHg 65%
12:00 +9°C° 0 mm 6 mps 763 mmHg 61%
13:00 +10°C° 0 mm 6 mps 763 mmHg 56%
14:00 +11°C° 0 mm 6 mps 763 mmHg 52%
15:00 +10°C° 0 mm 5 mps 763 mmHg 52%
16:00 +10°C° 0 mm 5 mps 763 mmHg 51%
17:00 +10°C° 0 mm 5 mps 763 mmHg 51%
18:00 +9°C° 0 mm 5 mps 764 mmHg 53%
19:00 +8°C° 0 mm 5 mps 764 mmHg 56%
20:00 +7°C° 0 mm 4 mps 764 mmHg 58%
21:00 +6°C° 0 mm 4 mps 765 mmHg 61%
22:00 +6°C° 0 mm 4 mps 765 mmHg 63%
23:00 +5°C° 0 mm 4 mps 765 mmHg 66%

17 April, Saturday

Time Temperature Precipitation Wind Pressure Humidity
00:00 +5°C° 0 mm 4 mps 766 mmHg 68%
01:00 +4°C° 0 mm 4 mps 766 mmHg 70%
02:00 +3°C° 0 mm 4 mps 766 mmHg 72%
03:00 +3°C° 0 mm 4 mps 766 mmHg 74%
04:00 +1°C° 0 mm 4 mps 766 mmHg 76%
05:00 +1°C° 0 mm 4 mps 767 mmHg 77%
06:00 +3°C° 0 mm 4 mps 767 mmHg 73%
07:00 +4°C° 0 mm 4 mps 767 mmHg 68%
08:00 +5°C° 0 mm 5 mps 767 mmHg 63%
09:00 +7°C° 0 mm 5 mps 768 mmHg 57%
10:00 +9°C° 0 mm 5 mps 768 mmHg 52%
11:00 +10°C° 0 mm 5 mps 768 mmHg 47%
12:00 +12°C° 0 mm 5 mps 768 mmHg 44%
13:00 +13°C° 0 mm 5 mps 768 mmHg 41%
14:00 +13°C° 0 mm 5 mps 768 mmHg 38%
15:00 +13°C° 0 mm 4 mps 768 mmHg 40%
16:00 +13°C° 0 mm 4 mps 768 mmHg 42%
17:00 +13°C° 0 mm 4 mps 768 mmHg 44%
18:00 +11°C° 0 mm 3 mps 768 mmHg 51%
19:00 +9°C° 0 mm 3 mps 768 mmHg 59%
20:00 +7°C° 0 mm 2 mps 768 mmHg 66%
21:00 +6°C° 0 mm 2 mps 769 mmHg 68%
22:00 +6°C° 0 mm 2 mps 769 mmHg 71%
23:00 +5°C° 0 mm 2 mps 769 mmHg 73%
Show more